Location: Mexico
(19.4000°N, 99.1500°W)
Time: 12:19:48
(UTC-06:00)

ISS - Pass Details

Date: 16 January 2021
Orbit: 418 x 421 km, 51.6° (Epoch: 24 January)

Event Time Altitude Azimuth Distance (km) Brightness Sun altitude
Rises 19:15:48 0° 244° (WSW) 2,354 2.0 -13.3°
Reaches altitude 10° 19:18:14 10° 261° (W) 1,493 0.4 -13.8°
Maximum altitude 19:20:51 21° 313° (NW) 997 -1.5 -14.4°
Drops below altitude 10° 19:23:29 10° 5° (N) 1,496 -1.2 -15.0°
Enters shadow 19:23:46 - 7° (N) 1,586 -1.1 -15.1°
